AL7IH Weather Reports


time (UTC)temp
C
wind
direction
speed
KPH
gust
KPH
rain 1hr
cm
rain 24hr
cm
rain mn
cm
humidity
%
barometer
mb
20260504034528 16 288 0.0 0.0 0.00 0.00 0.00 74 1018.7
20260504033027 16 288 0.0 0.0 0.00 0.00 0.00 73 1018.6
20260504031526 16 288 0.0 0.0 0.00 0.00 0.00 74 1018.6
20260504030037 16 288 0.0 0.0 0.00 0.00 0.00 70 1018.6
20260504024510 17 288 0.0 0.0 0.00 0.00 0.00 70 1018.6
20260504023017 17 288 0.0 0.0 0.00 0.00 0.00 67 1018.5
20260504021524 18 288 0.0 0.0 0.00 0.00 0.00 64 1018.5
20260504020025 19 288 0.0 0.0 0.00 0.00 0.00 61 1018.6
20260504014528 20 288 0.0 0.0 0.00 0.00 0.00 56 1018.4
20260504013017 21 288 0.0 0.0 0.00 0.00 0.00 53 1018.4
20260504011518 21 288 0.0 0.0 0.00 0.00 0.00 49 1018.1
20260504010024 22 288 0.0 3.2 0.00 0.00 0.00 46 1018.1
20260504004529 22 287 0.0 3.2 0.00 0.00 0.00 44 1018.2
20260504003028 23 290 0.0 8.0 0.00 0.00 0.00 43 1018.1
20260504001527 23 325 3.2 11.3 0.00 0.00 0.00 42 1018.4
20260504000023 23 323 3.2 9.7 0.00 0.00 0.00 40 1018.4
20260503234528 24 11 1.6 8.0 0.00 0.00 0.00 39 1018.5
20260503233010 25 269 3.2 12.9 0.00 0.00 0.00 38 1018.6
20260503231520 25 4 3.2 11.3 0.00 0.00 0.00 35 1018.8
20260503230023 25 292 1.6 17.7 0.00 0.00 0.00 36 1018.8
20260503224524 25 1 4.8 12.9 0.00 0.00 0.00 33 1019.0
20260503223010 25 289 3.2 16.1 0.00 0.00 0.00 33 1018.9
20260503221514 25 313 3.2 8.0 0.00 0.00 0.00 33 1018.9
20260503220027 25 341 4.8 11.3 0.00 0.00 0.00 34 1019.1
20260503214521 25 308 4.8 12.9 0.00 0.00 0.00 34 1019.5
20260503213041 25 286 3.2 12.9 0.00 0.00 0.00 33 1019.8
20260503211518 25 321 4.8 12.9 0.00 0.00 0.00 33 1020.0
20260503210018 25 323 4.8 16.1 0.00 0.00 0.00 32 1020.5
20260503204526 25 241 3.2 11.3 0.00 0.00 0.00 34 1020.6
20260503203025 25 306 3.2 11.3 0.00 0.00 0.00 33 1021.0
20260503201527 25 286 4.8 12.9 0.00 0.00 0.00 35 1021.1
20260503200014 25 291 4.8 16.1 0.00 0.00 0.00 35 1021.4
20260503194524 25 344 8.0 16.1 0.00 0.00 0.00 38 1021.6
20260503193024 25 307 4.8 12.9 0.00 0.00 0.00 40 1021.8
20260503191524 25 352 4.8 9.7 0.00 0.00 0.00 36 1021.9
20260503190027 25 359 4.8 12.9 0.00 0.00 0.00 38 1022.3
20260503184517 24 58 4.8 9.7 0.00 0.00 0.00 39 1022.4
20260503183021 24 316 3.2 12.9 0.00 0.00 0.00 1022.7
20260503181527 23 285 4.8 9.7 0.00 0.00 0.00 40 1023.0
20260503180032 23 347 4.8 14.5 0.00 0.00 0.00 40 1023.3
20260503174520 23 19 1.6 8.0 0.00 0.00 0.00 40 1023.6
20260503173020 23 285 3.2 12.9 0.00 0.00 0.00 41 1024.0
20260503171528 23 240 1.6 11.3 0.00 0.00 0.00 45 1024.1
20260503081539 9 197 0.0 0.0 0.00 0.00 0.00 91 1022.7
20260503071545 10 195 0.0 3.2 0.00 0.00 0.00 91 1023.6
20260503054534 11 195 0.0 0.0 0.00 0.00 0.00 89 1023.8
20260503053029 11 195 0.0 0.0 0.00 0.00 0.00 88 1023.7
20260503051525 11 195 0.0 0.0 0.00 0.00 0.00 87 1023.6
20260503050022 11 195 0.0 0.0 0.00 0.00 0.00 86 1023.5
20260503044526 11 195 0.0 0.0 0.00 0.00 0.00 86 1023.4
20260503043029 12 195 0.0 0.0 0.00 0.00 0.00 85 1023.5
20260503041527 12 195 0.0 3.2 0.00 0.00 0.00 84 1023.4
20260503040022 12 195 0.0 0.0 0.00 0.00 0.00 83 1023.6